This is the latest recevied weather packets stored in our database for station/object WB5RFA. If no packets are shown the sender has not sent any weather packets the latest 10 day(s).
| Time | Temp. | Humidity | Pressure | Rain* | Wind** | Luminosity | Snow |
|---|---|---|---|---|---|---|---|
| 1777674072 | 18.33° C | 35% | 1014.7 hPa | 0 mm | - | - | - |
| 1777673591 | 18.33° C | 36% | 1014.7 hPa | 0 mm | - | - | - |
| 1777673110 | 18.33° C | 34% | 1014.9 hPa | 0 mm | - | - | - |
| 1777672631 | 18.33° C | 34% | 1015 hPa | 0 mm | - | - | - |
| 1777672151 | 18.33° C | 32% | 1015.1 hPa | 0 mm | - | - | - |
| 1777671672 | 18.33° C | 34% | 1015.1 hPa | 0 mm | - | - | - |
| 1777671191 | 17.78° C | 35% | 1015.2 hPa | 0 mm | - | - | - |
| 1777670710 | 17.78° C | 35% | 1015.4 hPa | 0 mm | - | - | - |
| 1777670232 | 18.33° C | 38% | 1015.5 hPa | 0 mm | - | - | - |
| 1777669752 | 18.33° C | 38% | 1015.6 hPa | 0 mm | - | - | - |
| 1777669271 | 17.78° C | 36% | 1015.6 hPa | 0 mm | - | - | - |
| 1777668790 | 17.78° C | 37% | 1015.9 hPa | 0 mm | - | - | - |
| 1777668311 | 17.78° C | 36% | 1015.8 hPa | 0 mm | - | - | - |
| 1777667831 | 17.78° C | 37% | 1016 hPa | 0 mm | - | - | - |
| 1777667351 | 17.78° C | 36% | 1016.1 hPa | 0 mm | - | - | - |
| 1777666870 | 18.33° C | 36% | 1016.2 hPa | 0 mm | - | - | - |
| 1777666392 | 18.33° C | 37% | 1016.3 hPa | 0 mm | - | - | - |
| 1777665911 | 18.33° C | 36% | 1016.3 hPa | 0 mm | - | - | - |
| 1777665430 | 18.33° C | 36% | 1016.5 hPa | 0 mm | - | - | - |
| 1777664951 | 17.78° C | 37% | 1016.6 hPa | 0 mm | - | - | - |
| 1777664470 | 17.78° C | 36% | 1016.7 hPa | 0 mm | - | - | - |
| 1777663991 | 17.78° C | 36% | 1016.7 hPa | 0 mm | - | - | - |
| 1777663511 | 17.78° C | 37% | 1016.8 hPa | 0 mm | - | - | - |
| 1777663032 | 17.22° C | 40% | 1016.9 hPa | 0 mm | - | - | - |
| 1777662551 | 17.78° C | 36% | 1016.9 hPa | 0 mm | - | - | - |
* Rain latest hour (hover to see other rain measurements)
** Current wind speed in m/s (hover to see current wind gust speed)